{"data":{"norad_id":43446,"intl_designator":"2018-036F","name":"USA 286","alt_names":[],"object_type":"PAYLOAD","status":"ACTIVE","operator":null,"country":"US","launch_date":"2018-04-14","launch_site_code":"AFETR","launch_vehicle":null,"mission":null,"orbit_class":"UNKNOWN","rcs_meters":null,"size_class":null,"mass_kg":null,"dimensions":null,"purposes":[],"wikipedia_slug":null,"has_3d_model":false,"image_url":null,"decayed_at":null,"tle_current":{"epoch":"2026-09-19T19:16:55.474176Z","epoch_age_seconds":115097,"freshness":"FRESH","line1":"1 43446U 18036F   26262.80341984 -.00000237  00000+0  00000+0 0  9995","line2":"2 43446   7.3384  65.7449 0010442 165.6602 147.6109  1.02123514 27882","mean_motion":1.02123514,"eccentricity":0.0010442,"inclination_deg":7.3384,"raan_deg":65.7449,"arg_perigee_deg":165.6602,"mean_anomaly_deg":147.6109,"bstar":0,"rev_number":2788,"period_min":1410.0572371609,"perigee_km":35231.85324555,"apogee_km":35318.842383236,"semimajor_km":41653.484814393,"source":"CELESTRAK","updated_at":"2026-09-20T09:00:14.321901Z"}}}